Location: Avebury
(53.1487°N, 106.9774°W)
Time: 13:47:57
(UTC+00:00)

Envisat - Pass Details

Date: 22 January 2022
Orbit: 764 x 765 km, 98.2° (Epoch: 22 May)

Event Time Altitude Azimuth Distance (km) Brightness Sun altitude
Rises 11:44:47 0° 18° (NNE) 3,244 6.5 -29.7°
Reaches altitude 10° 11:47:10 10° 24° (NNE) 2,313 5.8 -29.3°
Maximum altitude 11:52:07 49° 99° (E) 980 3.8 -28.6°
Drops below altitude 10° 11:57:02 10° 175° (S) 2,298 5.5 -27.9°
Sets 11:59:24 0° 180° (S) 3,219 6.2 -27.5°
